TimeCDT,TemperatureF,Dew PointF,Humidity,Sea Level PressureIn,VisibilityMPH,Wind Direction,Wind SpeedMPH,Gust SpeedMPH,PrecipitationIn,Events,Conditions,WindDirDegrees,DateUTC
12:53 AM,54.0,53.1,97,30.07,10.0,Calm,Calm,-,N/A,,Clear,0,2012-10-22 05:53:00
1:53 AM,53.1,51.1,93,30.08,10.0,Calm,Calm,-,N/A,,Clear,0,2012-10-22 06:53:00
2:53 AM,52.0,51.1,97,30.07,10.0,Calm,Calm,-,N/A,,Clear,0,2012-10-22 07:53:00
3:53 AM,51.1,50.0,96,30.07,10.0,North,3.5,-,N/A,,Clear,10,2012-10-22 08:53:00
4:53 AM,52.0,51.1,97,30.07,10.0,Calm,Calm,-,N/A,,Clear,0,2012-10-22 09:53:00
5:53 AM,51.1,50.0,96,30.09,10.0,Calm,Calm,-,N/A,,Clear,0,2012-10-22 10:53:00
6:53 AM,51.1,50.0,96,30.10,10.0,Calm,Calm,-,N/A,,Clear,0,2012-10-22 11:53:00
7:53 AM,54.0,53.1,97,30.12,10.0,Calm,Calm,-,N/A,,Clear,0,2012-10-22 12:53:00
8:53 AM,64.9,57.0,75,30.13,-9999.0,NE,3.5,-,N/A,,Clear,40,2012-10-22 13:53:00
9:53 AM,72.0,60.1,66,30.13,10.0,ENE,5.8,-,0.01,,Clear,70,2012-10-22 14:53:00
10:53 AM,77.0,62.1,60,30.13,10.0,ENE,5.8,-,N/A,,Clear,60,2012-10-22 15:53:00
11:53 AM,79.0,62.1,56,30.12,10.0,SE,8.1,-,N/A,,Clear,130,2012-10-22 16:53:00
12:53 PM,80.1,61.0,52,30.10,10.0,SE,8.1,-,N/A,,Clear,130,2012-10-22 17:53:00
1:53 PM,81.0,62.1,52,30.08,10.0,SE,8.1,16.1,N/A,,Clear,130,2012-10-22 18:53:00
2:53 PM,81.0,63.0,54,30.05,10.0,SE,6.9,-,N/A,,Clear,140,2012-10-22 19:53:00
3:53 PM,80.1,63.0,56,30.05,10.0,SE,9.2,-,N/A,,Clear,140,2012-10-22 20:53:00
4:53 PM,79.0,63.0,58,30.05,10.0,SE,6.9,-,N/A,,Clear,130,2012-10-22 21:53:00
5:53 PM,75.9,64.0,67,30.06,10.0,SE,5.8,-,N/A,,Clear,130,2012-10-22 22:53:00
6:53 PM,68.0,64.9,90,30.07,10.0,Calm,Calm,-,N/A,,Clear,0,2012-10-22 23:53:00
7:53 PM,66.0,64.0,93,30.08,10.0,Calm,Calm,-,N/A,,Clear,0,2012-10-23 00:53:00
8:53 PM,64.0,62.1,93,30.09,10.0,Calm,Calm,-,N/A,,Clear,0,2012-10-23 01:53:00
9:53 PM,63.0,61.0,93,30.09,10.0,Calm,Calm,-,N/A,,Clear,0,2012-10-23 02:53:00
10:53 PM,63.0,61.0,93,30.09,10.0,Calm,Calm,-,N/A,,Clear,0,2012-10-23 03:53:00
11:53 PM,60.1,59.0,96,30.07,10.0,Calm,Calm,-,N/A,,Clear,0,2012-10-23 04:53:00